• In Lithuania
  • List of Countries
  • For 7 days
  • Water Temperature
  • Satellite Maps
  • Weather Map
  • Weather Widgets
  • user-avatar
    Login

    Hourly Weather Parakou

    Today, 22 February, Thursday

    Time Temperature Precipitation Wind Pressure Humidity
    00:00 +30°C° 0 mm 3 mps 725 mmHg 65%
    01:00 +29°C° 2.1 mm 3 mps 725 mmHg 68%
    02:00 +28°C° 2.1 mm 3 mps 725 mmHg 71%
    03:00 +28°C° 2.1 mm 2 mps 725 mmHg 75%
    04:00 +28°C° 0.2 mm 2 mps 725 mmHg 75%
    05:00 +28°C° 0.2 mm 2 mps 725 mmHg 76%
    06:00 +27°C° 0 mm 2 mps 725 mmHg 76%
    07:00 +28°C° 0 mm 2 mps 725 mmHg 73%
    08:00 +29°C° 0 mm 2 mps 725 mmHg 69%
    09:00 +30°C° 0 mm 3 mps 726 mmHg 65%
    10:00 +32°C° 0 mm 2 mps 725 mmHg 58%
    11:00 +34°C° 0 mm 2 mps 725 mmHg 51%
    12:00 +37°C° 0 mm 2 mps 725 mmHg 38%
    13:00 +37°C° 0 mm 2 mps 724 mmHg 37%
    14:00 +38°C° 0 mm 2 mps 724 mmHg 36%
    15:00 +38°C° 0 mm 2 mps 723 mmHg 34%
    16:00 +36°C° 0 mm 1 mps 723 mmHg 35%
    17:00 +35°C° 0 mm 1 mps 723 mmHg 37%
    18:00 +35°C° 0 mm 1 mps 723 mmHg 38%
    19:00 +34°C° 0 mm 1 mps 724 mmHg 40%
    20:00 +33°C° 0 mm 1 mps 724 mmHg 42%
    21:00 +33°C° 0 mm 1 mps 725 mmHg 44%
    22:00 +32°C° 0.1 mm 1 mps 725 mmHg 46%
    23:00 +32°C° 0.1 mm 2 mps 725 mmHg 49%

    Tomorrow, 23 February, Friday

    Time Temperature Precipitation Wind Pressure Humidity
    00:00 +31°C° 0.1 mm 2 mps 725 mmHg 52%
    01:00 +30°C° 1.5 mm 2 mps 725 mmHg 57%
    02:00 +29°C° 1.5 mm 2 mps 725 mmHg 63%
    03:00 +28°C° 1.5 mm 2 mps 724 mmHg 69%
    04:00 +28°C° 5.1 mm 2 mps 724 mmHg 74%
    05:00 +27°C° 5.1 mm 2 mps 724 mmHg 79%
    06:00 +26°C° 5.1 mm 3 mps 724 mmHg 84%
    07:00 +27°C° 1.5 mm 2 mps 725 mmHg 81%
    08:00 +27°C° 1.5 mm 2 mps 725 mmHg 79%
    09:00 +27°C° 1.5 mm 2 mps 726 mmHg 77%
    10:00 +28°C° 0.2 mm 2 mps 725 mmHg 72%
    11:00 +29°C° 0.2 mm 2 mps 725 mmHg 67%
    12:00 +30°C° 0.2 mm 2 mps 725 mmHg 62%
    13:00 +31°C° 0 mm 2 mps 724 mmHg 58%
    14:00 +31°C° 0 mm 2 mps 724 mmHg 53%
    15:00 +32°C° 0 mm 1 mps 723 mmHg 48%
    16:00 +32°C° 0 mm 1 mps 723 mmHg 51%
    17:00 +31°C° 0 mm 1 mps 723 mmHg 53%
    18:00 +30°C° 0 mm 1 mps 723 mmHg 55%
    19:00 +30°C° 0 mm 1 mps 724 mmHg 56%
    20:00 +29°C° 0 mm 1 mps 724 mmHg 57%
    21:00 +29°C° 0 mm 1 mps 725 mmHg 58%
    22:00 +29°C° 0.3 mm 1 mps 725 mmHg 58%
    23:00 +28°C° 0.3 mm 1 mps 725 mmHg 59%

    Day after tomorrow, 24 February, Saturday

    Time Temperature Precipitation Wind Pressure Humidity
    00:00 +28°C° 0.3 mm 1 mps 725 mmHg 60%
    01:00 +28°C° 0.5 mm 1 mps 725 mmHg 64%
    02:00 +27°C° 0.5 mm 1 mps 725 mmHg 67%
    03:00 +27°C° 0.5 mm 1 mps 725 mmHg 71%
    04:00 +27°C° 0 mm 1 mps 725 mmHg 73%
    05:00 +27°C° 0 mm 1 mps 725 mmHg 75%
    06:00 +27°C° 0 mm 1 mps 725 mmHg 77%
    07:00 +27°C° 0 mm 2 mps 726 mmHg 76%
    08:00 +28°C° 0 mm 2 mps 726 mmHg 75%
    09:00 +29°C° 0 mm 2 mps 727 mmHg 74%
    10:00 +30°C° 0 mm 2 mps 726 mmHg 70%
    11:00 +31°C° 0 mm 2 mps 726 mmHg 65%
    12:00 +32°C° 0 mm 2 mps 726 mmHg 61%
    13:00 +34°C° 0 mm 2 mps 725 mmHg 55%
    14:00 +34°C° 0 mm 1 mps 725 mmHg 50%
    15:00 +35°C° 0 mm 1 mps 724 mmHg 44%
    16:00 +34°C° 0 mm 1 mps 724 mmHg 46%
    17:00 +34°C° 0 mm 1 mps 724 mmHg 48%
    18:00 +33°C° 0 mm 1 mps 725 mmHg 50%
    19:00 +33°C° 0.1 mm 1 mps 725 mmHg 52%
    20:00 +32°C° 0.1 mm 1 mps 726 mmHg 54%
    21:00 +32°C° 0.1 mm 1 mps 726 mmHg 56%
    22:00 +31°C° 0.2 mm 2 mps 726 mmHg 60%
    23:00 +30°C° 0.2 mm 2 mps 726 mmHg 64%

    25 February, Sunday

    Time Temperature Precipitation Wind Pressure Humidity
    00:00 +29°C° 0.2 mm 2 mps 726 mmHg 68%
    01:00 +29°C° 0.1 mm 2 mps 726 mmHg 71%
    02:00 +28°C° 0.1 mm 2 mps 726 mmHg 74%
    03:00 +28°C° 0.1 mm 2 mps 725 mmHg 77%
    04:00 +28°C° 1.4 mm 2 mps 726 mmHg 79%
    05:00 +27°C° 1.4 mm 2 mps 726 mmHg 80%
    06:00 +27°C° 1.4 mm 1 mps 727 mmHg 82%
    07:00 +28°C° 0 mm 2 mps 727 mmHg 77%
    08:00 +29°C° 0 mm 2 mps 728 mmHg 71%
    09:00 +30°C° 0 mm 2 mps 728 mmHg 66%
    10:00 +31°C° 0 mm 2 mps 728 mmHg 60%
    11:00 +34°C° 0 mm 2 mps 727 mmHg 54%
    12:00 +35°C° 0 mm 2 mps 727 mmHg 49%
    13:00 +35°C° 0 mm 2 mps 726 mmHg 46%
    14:00 +35°C° 0 mm 1 mps 725 mmHg 44%
    15:00 +35°C° 0 mm 1 mps 724 mmHg 42%
    16:00 +35°C° 0 mm 1 mps 725 mmHg 44%
    17:00 +34°C° 0 mm 1 mps 725 mmHg 46%
    18:00 +33°C° 0 mm 1 mps 725 mmHg 48%
    19:00 +33°C° 0 mm 1 mps 725 mmHg 50%
    20:00 +32°C° 0 mm 1 mps 726 mmHg 52%
    21:00 +31°C° 0 mm 1 mps 726 mmHg 53%
    22:00 +31°C° 0 mm 1 mps 726 mmHg 55%
    23:00 +31°C° 0 mm 1 mps 726 mmHg 56%

    26 February, Monday

    Time Temperature Precipitation Wind Pressure Humidity
    00:00 +30°C° 0 mm 1 mps 726 mmHg 58%
    01:00 +30°C° 0.6 mm 1 mps 726 mmHg 61%
    02:00 +29°C° 0.6 mm 1 mps 725 mmHg 65%
    03:00 +28°C° 0.6 mm 1 mps 725 mmHg 69%
    04:00 +28°C° 0.2 mm 2 mps 726 mmHg 71%
    05:00 +28°C° 0.2 mm 2 mps 726 mmHg 73%
    06:00 +28°C° 0.2 mm 2 mps 726 mmHg 76%
    07:00 +28°C° 0 mm 2 mps 727 mmHg 74%
    08:00 +29°C° 0 mm 2 mps 727 mmHg 71%
    09:00 +29°C° 0 mm 1 mps 728 mmHg 69%
    10:00 +31°C° 0 mm 1 mps 727 mmHg 62%
    11:00 +32°C° 0 mm 1 mps 727 mmHg 55%
    12:00 +35°C° 0 mm 2 mps 727 mmHg 48%
    13:00 +35°C° 0 mm 2 mps 726 mmHg 46%
    14:00 +36°C° 0 mm 2 mps 726 mmHg 44%
    15:00 +36°C° 0 mm 2 mps 725 mmHg 41%
    16:00 +36°C° 0 mm 2 mps 725 mmHg 43%
    17:00 +34°C° 0 mm 1 mps 725 mmHg 44%
    18:00 +33°C° 0 mm 1 mps 725 mmHg 45%
    19:00 +33°C° 0 mm 1 mps 726 mmHg 46%
    20:00 +32°C° 0 mm 1 mps 726 mmHg 47%
    21:00 +32°C° 0 mm 1 mps 726 mmHg 48%
    22:00 +31°C° 0 mm 1 mps 726 mmHg 50%
    23:00 +31°C° 0 mm 1 mps 726 mmHg 52%

    27 February, Tuesday

    Time Temperature Precipitation Wind Pressure Humidity
    00:00 +30°C° 0 mm 1 mps 726 mmHg 54%
    01:00 +30°C° 0 mm 1 mps 725 mmHg 56%
    02:00 +29°C° 0 mm 1 mps 725 mmHg 58%
    03:00 +29°C° 0 mm 1 mps 725 mmHg 60%
    04:00 +28°C° 0 mm 1 mps 725 mmHg 64%
    05:00 +28°C° 0 mm 1 mps 726 mmHg 68%
    06:00 +27°C° 0 mm 1 mps 726 mmHg 72%
    07:00 +29°C° 0 mm 1 mps 727 mmHg 69%
    08:00 +30°C° 0 mm 2 mps 727 mmHg 65%
    09:00 +31°C° 0 mm 2 mps 728 mmHg 62%
    10:00 +34°C° 0 mm 1 mps 727 mmHg 52%
    11:00 +36°C° 0 mm 1 mps 727 mmHg 42%
    12:00 +37°C° 0 mm 0 mps 727 mmHg 32%
    13:00 +40°C° 0 mm 1 mps 726 mmHg 30%
    14:00 +40°C° 0 mm 1 mps 725 mmHg 28%
    15:00 +40°C° 0 mm 1 mps 724 mmHg 26%
    16:00 +38°C° 0 mm 2 mps 725 mmHg 29%
    17:00 +37°C° 0 mm 2 mps 725 mmHg 31%
    18:00 +36°C° 0 mm 2 mps 725 mmHg 34%
    19:00 +35°C° 0 mm 2 mps 726 mmHg 41%
    20:00 +34°C° 0 mm 3 mps 726 mmHg 47%
    21:00 +33°C° 0 mm 3 mps 727 mmHg 53%
    22:00 +32°C° 0 mm 4 mps 727 mmHg 58%
    23:00 +32°C° 0 mm 4 mps 727 mmHg 62%
    Show more